Temp
64 68 72 72 72 72 71 71 71 71 71 71 71 70 70 70 70 71 71 70 70 70 69 69 69 68 68 67 67 68 68 69 69 71 74 75 75 75 75 74 74 73 76
66 68 72 72 71 71 71 70 70 70 70 70 70 70 70 70 70 70 70 70 70 69 69 68 68 67 67 66 67 67 68 68 69 71 72 74 74 74 74 73 74 73 74
65 70 71 71 71 70 70 71 70 70 70 70 69 69 69 69 69 69 69 69 69 69 69 68 67 67 66 66 66 67 68 68 69 71 71 70 69 73 73 72 73 74 74
67 69 69 70 70 70 70 70 70 70 69 69 69 68 68 68 68 68 68 68 68 68 69 67 66 66 65 65 66 67 67 67 70 69 67 66 69 72 72 72 72 72 73
64 65 69 70 70 70 70 69 69 69 69 69 68 68 68 68 67 67 67 67 67 68 67 66 65 65 65 65 65 66 67 66 66 67 63 63 65 71 71 70 70 71 71
62 64 69 69 70 70 69 69 68 68 68 68 68 68 68 67 67 67 66 67 67 67 65 65 65 64 64 65 65 65 66 65 62 59 62 66 64 71 70 70 69 70 70
62 67 68 69 69 69 69 68 68 67 67 67 67 67 67 67 66 66 66 66 66 65 64 64 64 64 64 64 65 65 65 63 55 56 59 60 63 70 70 69 69 69 69
64 66 68 70 69 69 68 67 67 67 67 66 67 66 67 66 66 66 65 65 65 64 64 63 63 63 64 64 64 64 64 62 56 56 57 58 67 69 69 68 68 68 68
65 65 65 66 68 67 67 66 66 66 66 66 66 66 66 65 66 65 65 65 65 64 64 63 62 63 63 63 64 63 63 62 51 54 60 57 68 68 68 68 67 67 67
63 63 62 60 62 62 59 65 65 65 65 65 65 65 65 65 65 65 64 64 64 64 63 63 62 63 63 63 63 62 61 59 51 53 54 58 67 67 67 67 67 66 67
62 61 60 57 57 59 57 61 64 65 65 65 64 65 60 53 53 56 61 64 64 63 63 63 62 62 61 61 63 61 58 49 50 51 52 65 66 66 66 66 66 66 66
56 55 57 55 54 55 61 54 54 56 54 54 54 52 51 50 50 56 59 64 63 63 63 63 62 61 56 49 49 54 48 49 49 50 51 64 65 65 65 65 65 65 65
57 57 56 56 55 55 55 51 50 50 50 51 52 51 49 51 48 50 49 49 49 57 50 52 50 49 50 47 48 47 48 48 47 49 54 62 63 64 65 64 64 65 65
56 56 54 54 53 52 52 50 49 49 49 49 50 51 48 47 47 47 48 48 48 47 48 47 46 47 47 49 49 49 49 47 46 47 49 61 62 63 64 64 64 65 65
54 57 58 54 52 52 51 49 49 49 51 50 51 51 51 50 49 48 47 47 47 46 46 46 46 47 47 48 48 49 49 49 48 47 45 58 61 61 63 63 64 64 65
58 58 59 55 54 52 50 50 50 49 50 50 51 52 52 49 49 50 49 50 50 47 47 46 46 45 45 46 47 48 49 48 47 46 46 46 60 61 61 62 63 64 64
58 59 55 54 53 52 52 52 51 51 54 52 53 52 52 51 50 49 48 47 48 47 47 45 45 44 44 46 46 47 47 47 47 48 46 45 47 58 61 61 61 62 63
57 58 60 62 57 52 52 52 52 52 51 52 53 52 53 54 52 49 49 52 49 47 47 45 44 43 43 43 43 44 44 45 46 46 46 45 45 48 52 60 61 61 61
58 59 58 58 57 56 54 52 52 52 50 51 51 52 55 55 56 54 54 53 48 48 47 46 43 44 42 42 42 43 43 43 44 48 47 46 45 46 45 53 60 60 60
57 58 58 58 56 56 55 55 54 52 53 53 55 57 58 57 57 54 53 52 51 50 49 48 46 44 43 43 47 46 41 41 42 42 43 47 45 46 45 46 46 48 58
57 57 57 56 57 58 57 53 50 51 53 53 55 57 57 55 55 54 52 51 50 47 50 49 48 46 43 40 39 38 39 41 41 41 42 42 44 46 44 45 44 45 47
53 53 53 53 57 55 56 55 53 53 52 52 53 52 53 54 51 51 52 50 52 51 49 49 47 44 45 39 38 35 34 38 40 42 41 42 42 43 45 46 45 46 46
50 51 52 52 52 52 52 49 49 47 47 46 47 49 51 52 52 50 48 47 47 47 47 46 45 41 40 38 39 37 29 33 33 38 40 39 40 40 42 44 46 46 46
49 49 50 52 52 52 50 47 46 44 43 44 45 45 46 47 47 47 46 45 43 42 41 42 44 42 39 38 36 40 37 36 32 33 38 39 39 41 41 41 44 46 47
49 49 48 48 49 49 47 45 43 42 42 43 43 43 45 47 47 47 46 44 42 40 40 40 40 39 41 39 38 34 34 34 36 31 33 37 40 40 42 42 42 44 46
48 46 46 46 48 49 47 46 44 42 42 41 42 42 43 44 44 43 43 40 39 39 39 39 39 39 40 38 40 38 36 33 31 30 32 33 36 40 41 42 42 43 45
MSLP
1016.29 1016.35 1016.56 1016.98 1017.37 1017.78 1018.06 1018.08 1018.22 1018.42 1018.46 1018.59 1018.67 1018.82 1018.80 1018.95 1018.94 1019.02 1019.17 1019.31 1019.44 1019.58 1019.64 1019.68 1019.64 1019.60 1019.63 1019.70 1019.64 1019.40 1019.20 1019.02 1018.91 1018.61 1018.08 1018.00 1018.00 1018.05 1018.13 1018.09 1018.12 1018.03 1018.02
1016.12 1016.72 1017.00 1017.41 1017.88 1018.17 1018.48 1018.61 1018.71 1018.77 1018.79 1018.95 1019.18 1019.27 1019.31 1019.28 1019.32 1019.45 1019.57 1019.70 1019.80 1019.88 1019.95 1020.02 1020.00 1020.04 1020.15 1020.11 1019.88 1019.65 1019.44 1019.25 1019.05 1018.82 1018.55 1018.38 1018.36 1018.56 1018.54 1018.51 1018.42 1018.40 1018.36
1016.44 1017.06 1017.37 1017.86 1018.32 1018.63 1018.88 1019.04 1019.17 1019.10 1019.08 1019.37 1019.59 1019.70 1019.76 1019.78 1019.84 1019.86 1019.99 1020.08 1020.23 1020.24 1020.24 1020.30 1020.52 1020.56 1020.47 1020.35 1020.20 1019.93 1019.63 1019.48 1019.23 1019.11 1019.05 1019.01 1018.99 1019.06 1018.97 1019.05 1018.93 1018.83 1018.74
1016.17 1017.01 1017.58 1018.11 1018.54 1019.00 1019.36 1019.42 1019.56 1019.55 1019.60 1019.85 1020.04 1020.20 1020.16 1020.26 1020.30 1020.36 1020.36 1020.48 1020.55 1020.53 1020.51 1020.79 1020.90 1021.01 1020.97 1020.81 1020.53 1020.27 1019.93 1019.73 1019.39 1019.52 1019.53 1019.69 1019.69 1019.61 1019.56 1019.56 1019.54 1019.36 1019.21
1016.53 1017.15 1017.70 1018.23 1018.71 1019.14 1019.61 1019.80 1020.00 1020.02 1020.18 1020.32 1020.47 1020.55 1020.63 1020.69 1020.76 1020.75 1020.79 1020.81 1020.81 1020.79 1021.06 1021.20 1021.24 1021.29 1021.29 1021.12 1020.83 1020.51 1020.19 1020.07 1020.10 1020.02 1020.15 1020.32 1020.13 1019.96 1020.00 1020.03 1020.05 1019.99 1019.82
1017.34 1017.61 1017.94 1018.64 1019.09 1019.37 1019.88 1020.16 1020.47 1020.60 1020.71 1020.86 1020.84 1021.02 1021.09 1021.12 1021.14 1021.12 1021.12 1021.10 1021.04 1021.14 1021.44 1021.60 1021.60 1021.59 1021.56 1021.41 1021.17 1020.95 1020.72 1020.58 1020.55 1020.53 1020.59 1020.65 1020.44 1020.45 1020.46 1020.55 1020.57 1020.50 1020.34
1017.71 1017.94 1018.55 1019.00 1019.50 1019.78 1020.11 1020.58 1020.85 1020.99 1021.09 1021.20 1021.37 1021.36 1021.53 1021.50 1021.49 1021.46 1021.44 1021.45 1021.47 1021.65 1021.78 1021.84 1021.90 1021.81 1021.77 1021.73 1021.56 1021.34 1021.14 1021.17 1021.36 1021.37 1021.38 1021.23 1020.93 1020.79 1020.91 1021.01 1021.09 1021.06 1020.80
1018.23 1018.37 1018.99 1019.43 1019.77 1020.16 1020.57 1020.90 1021.21 1021.29 1021.49 1021.59 1021.63 1021.78 1021.73 1021.82 1021.72 1021.73 1021.77 1021.89 1021.86 1022.01 1022.03 1022.03 1022.16 1022.07 1022.01 1021.99 1021.95 1021.76 1021.60 1021.59 1021.71 1021.74 1021.66 1021.47 1021.36 1021.33 1021.43 1021.43 1021.60 1021.49 1021.39
1018.68 1018.93 1019.39 1019.67 1020.07 1020.55 1020.92 1021.31 1021.49 1021.57 1021.75 1021.80 1021.89 1021.96 1022.10 1022.11 1021.99 1022.00 1022.06 1022.10 1022.15 1022.21 1022.18 1022.26 1022.31 1022.28 1022.19 1022.18 1022.19 1022.13 1022.13 1021.99 1022.15 1022.08 1021.88 1021.88 1021.69 1021.76 1021.90 1021.88 1021.88 1021.82 1021.74
1019.31 1019.53 1019.93 1020.24 1020.40 1020.89 1021.26 1021.52 1021.63 1021.76 1021.88 1021.93 1022.02 1022.13 1022.30 1022.39 1022.29 1022.34 1022.36 1022.34 1022.40 1022.45 1022.45 1022.49 1022.48 1022.44 1022.34 1022.36 1022.40 1022.44 1022.51 1022.55 1022.67 1022.59 1022.41 1022.20 1022.07 1022.02 1022.06 1022.18 1022.17 1022.09 1022.03
1019.99 1019.71 1019.76 1020.26 1020.53 1020.95 1021.39 1021.56 1021.72 1021.86 1021.92 1022.02 1022.09 1022.25 1022.52 1022.74 1022.79 1022.75 1022.68 1022.58 1022.62 1022.65 1022.68 1022.71 1022.64 1022.65 1022.67 1022.60 1022.60 1022.74 1022.80 1023.11 1023.00 1023.00 1022.92 1022.52 1022.46 1022.47 1022.45 1022.50 1022.50 1022.45 1022.31
1019.88 1019.98 1019.75 1019.90 1020.28 1020.58 1020.97 1021.46 1021.82 1021.97 1022.12 1022.21 1022.36 1022.59 1022.70 1022.83 1023.01 1022.92 1022.76 1022.63 1022.71 1022.84 1022.88 1022.88 1022.86 1022.87 1022.97 1023.07 1023.19 1023.18 1023.26 1023.26 1023.27 1023.31 1023.24 1022.90 1022.88 1022.82 1022.87 1022.87 1022.70 1022.64 1022.52
1019.48 1019.68 1019.60 1019.62 1019.97 1020.24 1020.51 1021.10 1021.53 1021.80 1022.01 1022.19 1022.33 1022.53 1022.71 1022.83 1023.01 1023.06 1023.08 1023.13 1023.20 1023.00 1023.17 1023.13 1023.25 1023.32 1023.32 1023.37 1023.48 1023.58 1023.56 1023.51 1023.52 1023.51 1023.40 1023.22 1023.15 1023.10 1023.08 1023.07 1022.87 1022.66 1022.61
1019.18 1019.83 1020.26 1020.63 1020.93 1020.99 1021.15 1021.39 1021.61 1021.87 1022.02 1022.26 1022.31 1022.40 1022.68 1022.93 1022.97 1023.00 1023.13 1023.14 1023.26 1023.29 1023.30 1023.24 1023.45 1023.32 1023.48 1023.50 1023.46 1023.55 1023.58 1023.73 1023.74 1023.69 1023.64 1023.39 1023.38 1023.24 1023.07 1023.00 1022.96 1022.80 1022.64
1019.94 1020.07 1020.32 1020.66 1021.07 1021.27 1021.61 1021.86 1021.85 1021.97 1021.94 1022.04 1022.23 1022.31 1022.42 1022.61 1022.78 1022.74 1022.87 1022.94 1022.91 1023.03 1023.19 1023.24 1023.33 1023.30 1023.32 1023.42 1023.40 1023.46 1023.48 1023.57 1023.75 1023.76 1023.73 1023.51 1023.39 1023.27 1023.14 1023.02 1022.94 1022.87 1022.65
1020.08 1020.36 1020.40 1020.81 1020.96 1021.24 1021.57 1021.61 1021.80 1021.83 1021.80 1021.82 1021.69 1021.64 1021.86 1022.16 1022.44 1022.49 1022.46 1022.39 1022.54 1022.35 1022.51 1022.88 1022.97 1023.09 1023.32 1023.37 1023.41 1023.36 1023.44 1023.55 1023.61 1023.77 1023.75 1023.66 1023.33 1023.28 1023.18 1023.10 1023.05 1022.89 1022.76
1019.98 1020.26 1020.68 1020.87 1021.30 1021.51 1021.42 1021.36 1021.50 1021.34 1021.29 1021.39 1021.23 1021.23 1021.37 1021.60 1021.87 1022.04 1022.05 1022.18 1021.94 1021.88 1022.14 1022.66 1022.85 1022.95 1023.31 1023.44 1023.42 1023.31 1023.39 1023.53 1023.56 1023.55 1023.64 1023.65 1023.57 1023.30 1023.15 1023.10 1023.08 1023.06 1022.93
1020.24 1020.26 1020.47 1020.67 1021.33 1021.64 1021.45 1021.26 1021.12 1021.09 1021.06 1021.01 1020.92 1020.84 1020.80 1020.88 1021.13 1021.56 1021.77 1021.61 1021.57 1021.89 1022.31 1022.34 1022.55 1022.98 1023.23 1023.47 1023.43 1023.33 1023.37 1023.45 1023.44 1023.41 1023.56 1023.64 1023.53 1023.49 1023.33 1023.04 1022.98 1023.01 1023.00
1020.76 1020.60 1020.74 1020.98 1021.41 1021.68 1021.40 1021.48 1021.28 1021.10 1021.11 1020.82 1020.63 1020.46 1020.27 1020.32 1020.47 1020.83 1020.99 1021.06 1021.28 1021.53 1021.66 1021.96 1022.47 1022.73 1023.12 1023.26 1023.32 1023.31 1023.32 1023.38 1023.29 1023.22 1023.20 1023.32 1023.41 1023.36 1023.34 1023.11 1022.84 1022.87 1022.94
1021.01 1020.96 1021.03 1021.25 1021.25 1021.44 1021.21 1020.97 1020.77 1020.64 1020.28 1019.99 1019.85 1019.66 1019.50 1019.56 1019.61 1019.94 1020.18 1020.48 1020.97 1021.19 1021.62 1021.70 1021.89 1022.33 1022.56 1022.73 1023.07 1023.24 1023.35 1023.32 1023.23 1023.31 1023.18 1023.03 1023.11 1023.16 1023.16 1023.13 1023.06 1023.01 1022.84
1021.23 1021.13 1021.09 1021.19 1021.19 1021.07 1020.93 1020.95 1020.85 1020.75 1020.05 1019.75 1019.22 1018.95 1018.90 1018.96 1019.16 1019.34 1019.70 1020.20 1020.62 1021.03 1021.24 1021.65 1021.56 1021.97 1022.22 1022.61 1023.09 1023.37 1023.23 1023.11 1023.19 1023.14 1022.99 1022.96 1022.94 1022.83 1022.93 1022.93 1022.95 1022.97 1022.89
1020.76 1021.09 1021.03 1020.83 1020.56 1020.49 1020.28 1020.27 1020.09 1019.94 1019.61 1019.33 1018.74 1018.62 1018.41 1018.54 1018.84 1018.81 1018.89 1019.22 1018.94 1019.76 1020.42 1020.73 1021.19 1021.88 1021.64 1022.28 1022.77 1023.54 1023.56 1023.29 1023.06 1022.83 1022.79 1022.77 1022.63 1022.59 1022.62 1022.65 1022.67 1022.67 1022.73
1021.07 1020.88 1020.77 1020.66 1020.44 1020.14 1019.95 1019.83 1019.78 1019.73 1019.58 1019.34 1018.89 1018.53 1018.13 1018.04 1018.00 1018.10 1018.30 1018.54 1018.67 1018.94 1019.39 1019.76 1020.21 1020.80 1021.13 1021.62 1021.67 1022.32 1023.50 1023.44 1023.46 1022.87 1022.68 1022.57 1022.49 1022.60 1022.45 1022.41 1022.40 1022.33 1022.38
1020.88 1020.73 1020.56 1020.20 1019.98 1019.76 1019.75 1019.77 1019.88 1019.74 1019.65 1019.00 1018.59 1018.18 1017.98 1017.86 1017.81 1017.75 1017.90 1018.12 1018.29 1018.52 1018.80 1019.04 1019.39 1019.72 1020.15 1021.07 1021.82 1021.54 1021.86 1022.33 1023.14 1023.37 1022.95 1022.59 1022.23 1022.23 1022.23 1022.26 1022.10 1021.97 1022.04
1020.65 1020.65 1020.36 1020.28 1020.06 1019.74 1019.69 1019.72 1019.72 1019.57 1019.24 1018.81 1018.64 1018.48 1018.24 1017.86 1017.63 1017.52 1017.59 1017.69 1017.97 1018.32 1018.51 1018.63 1018.80 1019.21 1019.57 1019.79 1020.22 1021.23 1021.88 1022.15 1022.34 1022.72 1023.11 1022.64 1022.28 1022.10 1021.96 1021.84 1021.82 1021.80 1021.78
1020.74 1020.75 1020.56 1020.40 1020.01 1019.65 1019.49 1019.28 1019.32 1019.30 1019.16 1019.03 1018.84 1018.66 1018.37 1018.08 1017.77 1017.86 1017.60 1017.57 1017.65 1017.78 1018.05 1018.24 1018.36 1018.62 1018.85 1019.12 1019.33 1019.72 1020.51 1021.45 1022.09 1022.30 1022.82 1022.75 1022.61 1022.21 1021.75 1021.58 1021.62 1021.56 1021.48
Wind_Speed
9 9 18 18 16 15 14 15 15 15 16 16 16 16 16 15 15 15 14 14 14 13 13 13 14 15 15 15 13 12 11 9 9 10 8 12 15 16 18 17 13 9 12
12 10 17 16 15 15 14 14 14 15 15 16 15 15 15 15 15 14 14 13 13 13 13 13 13 15 15 14 13 12 11 9 9 9 13 14 17 16 17 18 17 10 11
10 11 13 16 16 14 13 13 14 14 15 14 15 14 14 14 14 14 13 13 13 12 12 13 14 14 15 14 13 12 13 12 6 9 13 7 10 14 16 17 17 17 12
13 11 13 17 16 14 12 12 12 13 14 13 14 13 14 14 14 13 13 13 12 11 13 13 14 14 15 14 13 14 16 15 10 11 7 6 8 13 14 15 17 17 17
10 8 14 17 15 14 12 11 11 12 12 12 12 12 13 13 13 13 12 12 11 11 13 12 13 14 15 15 15 16 17 16 12 9 8 6 5 12 16 16 15 16 17
9 7 16 16 15 14 13 12 11 10 11 10 10 12 11 11 12 12 11 11 10 13 11 11 12 13 15 16 16 16 17 16 11 7 6 7 6 14 16 17 16 15 15
9 9 13 15 14 13 14 11 10 10 9 10 8 9 10 10 10 11 11 10 9 10 9 10 11 13 14 15 16 15 16 14 6 6 6 5 6 15 15 15 15 14 15
10 11 11 15 14 13 12 11 9 9 8 9 8 7 9 9 9 10 9 8 8 7 7 8 9 11 13 14 15 15 15 13 7 6 5 5 11 13 13 13 13 13 13
10 9 7 7 12 13 12 10 8 8 8 7 8 7 7 7 8 8 7 7 6 6 6 7 8 10 11 12 14 15 15 12 6 4 4 4 11 11 11 11 11 12 12
9 8 7 6 8 6 6 9 8 7 9 7 6 7 6 5 6 6 6 5 5 5 5 7 7 9 11 11 12 14 14 13 6 5 4 3 8 8 10 10 10 10 11
7 9 9 8 7 8 6 6 7 8 7 7 7 7 4 1 2 3 2 3 4 3 4 5 6 7 9 10 12 12 10 4 4 3 3 7 7 7 7 8 7 8 9
9 6 9 9 9 9 6 5 5 4 3 3 3 2 2 2 2 2 3 1 2 2 0 2 3 5 6 3 4 7 3 4 3 3 2 6 6 6 6 6 4 5 7
12 9 9 10 9 9 7 5 3 3 3 3 4 4 3 2 2 2 1 2 1 0 1 3 3 2 2 2 3 3 3 3 2 2 3 4 5 6 6 5 6 5 4
13 6 3 3 3 3 3 3 4 3 3 3 4 5 3 2 3 4 3 4 3 2 2 2 1 1 2 2 1 1 3 2 0 0 2 1 2 6 7 6 5 6 4
7 6 7 6 5 4 3 1 3 4 4 4 4 5 4 4 4 4 4 4 4 3 3 3 3 3 2 3 2 2 1 2 2 1 1 5 3 4 6 7 6 6 6
6 5 6 6 6 4 5 5 5 4 5 5 5 6 7 5 5 5 5 5 4 5 5 5 5 4 3 3 3 2 2 3 2 3 2 3 7 6 7 6 6 8 8
5 5 6 5 4 5 6 5 5 5 6 6 6 6 7 7 7 6 4 5 5 4 5 4 3 3 3 2 4 3 1 2 4 4 4 3 4 8 8 7 6 6 8
3 5 6 7 4 5 6 5 4 4 4 4 4 4 8 8 8 6 5 6 5 4 4 3 3 2 3 3 3 4 3 2 4 5 3 3 4 3 6 9 8 6 6
4 5 6 3 2 5 4 4 5 5 5 5 4 5 7 8 9 7 6 6 4 4 5 4 3 3 3 3 4 4 3 3 3 2 4 5 5 5 3 8 9 8 7
7 7 6 5 6 7 5 4 4 4 5 5 5 4 6 5 7 7 5 6 4 4 3 3 4 3 4 4 3 3 3 4 3 3 4 3 4 6 5 6 4 4 10
5 6 5 6 7 5 2 4 4 5 4 4 5 9 7 5 6 5 4 4 4 2 4 4 2 6 4 3 3 2 3 5 4 4 4 4 5 6 5 5 4 3 4
7 6 6 9 10 7 2 4 4 3 4 4 3 5 5 5 6 7 8 8 9 10 11 10 8 4 3 5 4 2 1 4 2 5 4 4 7 4 5 6 5 6 5
8 9 8 8 8 7 7 3 3 2 3 3 4 4 5 6 6 7 7 6 6 6 7 8 9 9 6 4 6 6 2 4 1 2 2 2 5 3 5 5 6 6 6
10 7 8 8 8 7 5 3 5 4 5 5 4 3 5 6 7 6 6 5 6 4 6 8 9 7 5 6 2 3 2 5 4 2 2 3 2 3 5 4 5 5 5
8 7 7 7 7 8 6 6 5 6 5 4 4 6 6 6 5 5 6 6 6 4 5 6 6 8 6 5 4 4 2 1 1 4 3 4 3 2 4 4 4 4 5
5 6 7 7 8 7 7 7 6 7 6 4 4 4 4 4 3 3 2 4 5 5 5 4 4 6 8 5 4 6 5 5 4 4 2 3 3 3 2 3 4 5 4
Wind_Direction
156 153 140 136 137 131 130 123 119 114 111 107 105 104 101 98 95 92 87 83 78 72 66 61 58 53 44 37 35 34 47 44 35 25 73 70 68 57 55 51 53 51 64
133 142 140 137 136 127 131 124 118 117 112 108 106 103 101 99 96 93 89 87 81 74 70 63 56 48 43 39 39 40 34 29 33 45 56 62 62 54 52 43 49 54 60
127 143 129 134 134 133 130 127 123 117 113 111 108 107 105 102 99 96 92 86 82 77 76 65 53 46 40 42 41 35 30 27 55 82 65 50 60 52 52 46 40 49 54
129 134 131 140 137 134 128 128 123 116 114 114 110 108 105 104 101 99 94 88 87 84 76 63 53 44 39 39 40 36 36 36 107 87 64 49 65 64 55 47 41 38 41
115 124 135 139 136 136 133 126 119 114 113 116 115 109 104 104 101 98 95 92 88 90 75 66 53 43 38 38 38 34 35 43 59 68 68 49 52 62 58 46 40 35 34
110 126 132 134 133 136 128 122 118 119 118 113 119 112 107 107 100 97 93 88 98 84 79 65 52 45 43 41 42 36 36 40 48 39 54 60 52 63 58 50 38 32 32
126 125 124 130 135 137 127 129 124 124 122 115 111 118 109 105 102 99 91 85 86 84 76 64 49 44 43 44 51 42 36 43 57 53 60 52 59 59 56 50 41 35 28
118 116 127 132 134 131 128 125 128 128 129 128 123 126 117 109 108 106 92 86 88 83 70 67 47 45 46 49 53 42 35 50 47 44 41 40 65 58 52 49 42 36 32
111 111 115 126 132 129 123 123 136 133 136 132 125 116 116 120 117 103 93 88 89 85 70 63 50 49 47 49 52 48 40 49 48 37 44 42 56 47 40 38 37 34 29
111 105 98 83 102 96 117 139 149 143 160 141 136 137 129 128 131 114 90 90 85 82 77 73 60 49 47 50 58 60 51 50 36 26 18 56 60 47 38 28 27 25 23
127 145 137 130 127 123 138 163 165 158 157 162 154 147 107 81 15 31 139 93 86 93 92 82 64 49 49 45 61 67 55 33 31 36 13 51 45 38 21 12 13 17 17
171 167 154 155 155 149 160 152 160 192 160 160 157 140 153 205 243 232 253 178 115 85 49 80 64 44 47 39 25 55 43 42 53 43 5 44 28 24 13 355 9 357 9
174 177 179 170 164 161 163 163 168 180 184 195 201 191 195 226 263 267 289 334 10 272 322 2 11 10 24 41 27 32 70 47 45 41 351 44 21 8 4 338 330 345 1
186 172 140 97 155 176 143 164 178 180 196 205 217 213 188 222 223 197 208 224 205 236 247 266 265 282 285 277 259 285 98 102 103 320 304 336 356 347 354 343 298 313 325
170 176 172 144 181 188 174 176 187 206 205 210 212 221 204 202 218 199 211 207 207 193 214 232 226 230 224 227 242 234 226 206 191 227 256 276 262 308 334 342 312 281 302
169 179 172 180 193 172 186 189 213 205 222 217 222 220 208 203 214 212 198 197 212 192 193 198 197 198 214 190 212 230 233 252 246 206 236 263 253 272 298 313 327 294 274
172 158 186 166 181 203 214 222 217 218 220 225 222 229 211 199 211 215 202 203 217 208 181 183 187 159 176 231 248 229 234 258 264 237 221 230 272 275 275 287 299 308 287
156 157 140 167 175 210 209 225 216 228 228 233 226 216 214 212 207 207 212 222 219 173 193 185 161 183 221 236 254 248 236 249 260 255 257 250 240 257 285 279 275 277 295
34 82 80 80 200 247 260 253 246 226 222 225 220 220 223 219 219 207 218 242 215 199 190 178 176 171 184 227 244 252 244 242 250 268 250 239 244 235 246 268 262 259 269
6 59 59 41 6 308 301 285 278 276 261 242 247 234 229 220 213 201 215 211 199 192 222 196 176 186 185 200 208 242 257 256 224 222 251 254 240 238 239 246 266 283 263
59 69 158 195 244 243 279 264 268 243 245 253 246 245 239 206 211 196 174 197 181 208 220 253 202 184 209 193 100 310 286 245 246 239 239 237 245 244 232 232 229 249 270
193 228 239 227 241 253 197 218 217 239 262 254 262 270 241 224 229 201 199 203 198 202 208 212 202 209 205 185 154 105 307 321 303 243 246 247 245 238 234 234 231 231 237
242 238 254 262 268 270 266 272 271 272 288 279 263 257 243 231 230 207 207 205 205 194 209 216 211 190 191 194 201 147 77 219 6 318 307 287 270 232 240 238 234 232 227
254 258 260 262 259 271 282 274 241 231 239 236 239 249 264 243 236 233 237 232 225 201 197 204 205 198 150 178 210 219 139 144 171 306 304 290 291 230 223 233 237 233 223
265 272 287 301 291 275 268 256 260 263 255 296 298 298 294 292 266 230 211 204 207 205 227 211 186 192 205 166 162 138 131 108 113 137 225 301 351 286 233 228 234 237 232
298 301 296 290 287 289 282 284 276 278 304 330 329 319 311 302 296 280 195 166 160 150 165 176 200 202 202 210 210 161 159 160 187 143 142 230 200 287 284 258 220 229 235